Time,TemperatureF,DewpointF,PressureIn,WindDirection,WindDirectionDegrees,WindSpeedMPH,WindSpeedGustMPH,Humidity,HourlyPrecipIn,Conditions,Clouds,dailyrainin,SoftwareType,DateUTC
2013-01-15 00:00:00,16.9,15.0,30.40,SE,132,0.0,0.0,91,0.00,,,0.00,weatherlink.com 1.10,2013-01-15 05:00:00,
2013-01-15 00:15:00,17.1,15.0,30.40,SE,128,0.0,0.0,91,0.00,,,0.00,weatherlink.com 1.10,2013-01-15 05:15:00,
2013-01-15 00:30:00,17.1,15.0,30.40,SE,129,0.0,0.0,90,0.00,,,0.00,weatherlink.com 1.10,2013-01-15 05:30:00,
2013-01-15 00:45:00,16.9,15.0,30.40,SE,129,0.0,0.0,90,0.00,,,0.00,weatherlink.com 1.10,2013-01-15 05:45:00,
2013-01-15 01:00:00,16.7,15.0,30.40,SE,129,0.0,0.0,91,0.00,,,0.00,weatherlink.com 1.10,2013-01-15 06:00:00,
2013-01-15 01:15:00,16.6,15.0,30.40,SE,125,0.0,0.0,91,0.00,,,0.00,weatherlink.com 1.10,2013-01-15 06:15:00,
2013-01-15 01:30:00,16.7,15.0,30.40,SE,125,0.0,0.0,91,0.00,,,0.00,weatherlink.com 1.10,2013-01-15 06:30:00,
2013-01-15 01:45:00,16.9,15.0,30.41,SE,136,1.0,1.0,92,0.00,,,0.00,weatherlink.com 1.10,2013-01-15 06:45:00,
2013-01-15 02:00:00,17.5,16.0,30.41,SE,135,0.0,0.0,92,0.00,,,0.00,weatherlink.com 1.10,2013-01-15 07:00:00,
2013-01-15 02:15:00,18.2,16.0,30.41,WNW,298,0.0,1.0,92,0.00,,,0.00,weatherlink.com 1.10,2013-01-15 07:15:00,
2013-01-15 02:31:00,18.6,16.0,30.41,NNW,347,0.0,1.0,91,0.00,,,0.00,weatherlink.com 1.10,2013-01-15 07:31:00,
2013-01-15 02:46:00,18.9,17.0,30.42,ESE,113,0.0,0.0,91,0.00,,,0.00,weatherlink.com 1.10,2013-01-15 07:46:00,
2013-01-15 03:01:00,19.2,17.0,30.42,ESE,112,0.0,0.0,91,0.00,,,0.00,weatherlink.com 1.10,2013-01-15 08:01:00,
2013-01-15 03:16:00,19.3,17.0,30.42,ESE,112,0.0,0.0,90,0.00,,,0.00,weatherlink.com 1.10,2013-01-15 08:16:00,
2013-01-15 03:31:00,19.0,17.0,30.42,ESE,112,0.0,0.0,90,0.00,,,0.00,weatherlink.com 1.10,2013-01-15 08:31:00,
2013-01-15 03:46:00,18.4,16.0,30.41,ESE,111,0.0,0.0,90,0.00,,,0.00,weatherlink.com 1.10,2013-01-15 08:46:00,
2013-01-15 04:01:00,17.8,16.0,30.41,ESE,112,0.0,0.0,91,0.00,,,0.00,weatherlink.com 1.10,2013-01-15 09:01:00,
2013-01-15 04:16:00,17.4,15.0,30.41,ESE,111,0.0,0.0,91,0.00,,,0.00,weatherlink.com 1.10,2013-01-15 09:16:00,
2013-01-15 04:31:00,16.9,15.0,30.41,ESE,113,0.0,0.0,91,0.00,,,0.00,weatherlink.com 1.10,2013-01-15 09:31:00,
2013-01-15 04:46:00,16.6,15.0,30.41,ESE,113,0.0,0.0,92,0.00,,,0.00,weatherlink.com 1.10,2013-01-15 09:46:00,
2013-01-15 05:01:00,16.5,15.0,30.41,ESE,113,0.0,0.0,92,0.00,,,0.00,weatherlink.com 1.10,2013-01-15 10:01:00,
2013-01-15 05:16:00,16.6,15.0,30.41,ESE,113,0.0,0.0,92,0.00,,,0.00,weatherlink.com 1.10,2013-01-15 10:16:00,
2013-01-15 05:31:00,16.6,15.0,30.41,ESE,113,0.0,0.0,92,0.00,,,0.00,weatherlink.com 1.10,2013-01-15 10:31:00,
2013-01-15 05:46:00,16.8,15.0,30.41,SSE,155,0.0,0.0,92,0.00,,,0.00,weatherlink.com 1.10,2013-01-15 10:46:00,
2013-01-15 06:01:00,16.7,15.0,30.41,SSE,155,0.0,0.0,91,0.00,,,0.00,weatherlink.com 1.10,2013-01-15 11:01:00,
2013-01-15 06:16:00,16.4,14.0,30.41,SSE,155,0.0,0.0,91,0.00,,,0.00,weatherlink.com 1.10,2013-01-15 11:16:00,
2013-01-15 06:31:00,16.0,14.0,30.41,SSE,154,0.0,0.0,91,0.00,,,0.00,weatherlink.com 1.10,2013-01-15 11:31:00,
2013-01-15 06:46:00,15.5,13.0,30.42,SSE,153,0.0,0.0,91,0.00,,,0.00,weatherlink.com 1.10,2013-01-15 11:46:00,
2013-01-15 07:01:00,15.3,13.0,30.42,SSE,153,0.0,0.0,91,0.00,,,0.00,weatherlink.com 1.10,2013-01-15 12:01:00,
2013-01-15 07:16:00,15.1,13.0,30.41,SSE,154,0.0,0.0,91,0.00,,,0.00,weatherlink.com 1.10,2013-01-15 12:16:00,
2013-01-15 07:31:00,14.7,13.0,30.41,SSE,154,0.0,0.0,91,0.00,,,0.00,weatherlink.com 1.10,2013-01-15 12:31:00,
2013-01-15 07:46:00,14.7,13.0,30.41,SSE,153,0.0,0.0,91,0.00,,,0.00,weatherlink.com 1.10,2013-01-15 12:46:00,
2013-01-15 08:01:00,14.4,12.0,30.41,SSE,153,0.0,0.0,91,0.00,,,0.00,weatherlink.com 1.10,2013-01-15 13:01:00,
2013-01-15 08:16:00,14.3,12.0,30.41,SSE,153,0.0,0.0,91,0.00,,,0.00,weatherlink.com 1.10,2013-01-15 13:16:00,
2013-01-15 08:31:00,14.4,12.0,30.42,SSE,153,0.0,0.0,91,0.00,,,0.00,weatherlink.com 1.10,2013-01-15 13:31:00,
2013-01-15 08:46:00,14.5,12.0,30.42,SSE,153,0.0,0.0,91,0.00,,,0.00,weatherlink.com 1.10,2013-01-15 13:46:00,
2013-01-15 09:01:00,14.8,13.0,30.42,SSE,153,0.0,0.0,91,0.00,,,0.00,weatherlink.com 1.10,2013-01-15 14:01:00,
2013-01-15 09:16:00,15.2,13.0,30.43,SSE,153,0.0,0.0,92,0.00,,,0.00,weatherlink.com 1.10,2013-01-15 14:16:00,
2013-01-15 09:31:00,16.3,14.0,30.43,SSE,153,0.0,0.0,92,0.00,,,0.00,weatherlink.com 1.10,2013-01-15 14:31:00,
2013-01-15 09:46:00,17.6,16.0,30.43,SSE,154,0.0,0.0,92,0.00,,,0.00,weatherlink.com 1.10,2013-01-15 14:46:00,
2013-01-15 10:01:00,19.2,18.0,30.43,SSE,154,0.0,0.0,93,0.00,,,0.00,weatherlink.com 1.10,2013-01-15 15:01:00,
2013-01-15 10:16:00,20.6,19.0,30.43,SSE,153,0.0,0.0,93,0.00,,,0.00,weatherlink.com 1.10,2013-01-15 15:16:00,
2013-01-15 10:31:00,22.3,20.0,30.43,SSE,153,0.0,0.0,92,0.00,,,0.00,weatherlink.com 1.10,2013-01-15 15:31:00,
2013-01-15 10:46:00,24.2,20.0,30.43,SSE,153,0.0,0.0,83,0.00,,,0.00,weatherlink.com 1.10,2013-01-15 15:46:00,
2013-01-15 11:01:00,25.5,20.0,30.43,SSE,150,0.0,1.0,78,0.00,,,0.00,weatherlink.com 1.10,2013-01-15 16:01:00,
2013-01-15 11:16:00,26.1,20.0,30.43,SSE,150,0.0,0.0,77,0.00,,,0.00,weatherlink.com 1.10,2013-01-15 16:16:00,
2013-01-15 11:31:00,26.9,21.0,30.43,ESE,111,2.0,2.0,77,0.00,,,0.00,weatherlink.com 1.10,2013-01-15 16:31:00,
2013-01-15 11:47:00,27.1,20.0,30.42,SE,141,2.0,4.0,73,0.00,,,0.00,weatherlink.com 1.10,2013-01-15 16:47:00,
2013-01-15 12:02:00,27.6,20.0,30.41,SE,142,0.0,3.0,74,0.00,,,0.00,weatherlink.com 1.10,2013-01-15 17:02:00,
2013-01-15 12:17:00,28.0,21.0,30.40,West,276,0.0,2.0,74,0.00,,,0.00,weatherlink.com 1.10,2013-01-15 17:17:00,
2013-01-15 12:32:00,27.7,19.0,30.38,WSW,245,1.0,3.0,71,0.00,,,0.00,weatherlink.com 1.10,2013-01-15 17:32:00,
2013-01-15 12:47:00,28.0,20.0,30.37,West,273,1.0,2.0,72,0.00,,,0.00,weatherlink.com 1.10,2013-01-15 17:47:00,
2013-01-15 13:02:00,28.2,20.0,30.36,WNW,303,0.0,2.0,72,0.00,,,0.00,weatherlink.com 1.10,2013-01-15 18:02:00,
2013-01-15 13:17:00,28.8,20.0,30.35,SSW,195,2.0,2.0,69,0.00,,,0.00,weatherlink.com 1.10,2013-01-15 18:17:00,
2013-01-15 13:32:00,29.1,19.0,30.35,ESE,108,0.0,3.0,67,0.00,,,0.00,weatherlink.com 1.10,2013-01-15 18:32:00,
2013-01-15 13:47:00,29.5,20.0,30.35,SE,139,1.0,3.0,68,0.00,,,0.00,weatherlink.com 1.10,2013-01-15 18:47:00,
2013-01-15 14:02:00,29.3,20.0,30.35,NW,313,2.0,5.0,68,0.00,,,0.00,weatherlink.com 1.10,2013-01-15 19:02:00,
2013-01-15 14:17:00,29.6,20.0,30.34,WNW,290,1.0,3.0,68,0.00,,,0.00,weatherlink.com 1.10,2013-01-15 19:17:00,
2013-01-15 14:32:00,29.7,20.0,30.32,SSE,160,0.0,3.0,68,0.00,,,0.00,weatherlink.com 1.10,2013-01-15 19:32:00,
2013-01-15 14:47:00,30.1,20.0,30.32,ESE,118,0.0,2.0,66,0.00,,,0.00,weatherlink.com 1.10,2013-01-15 19:47:00,
2013-01-15 15:02:00,29.9,20.0,30.32,WNW,300,1.0,3.0,67,0.00,,,0.00,weatherlink.com 1.10,2013-01-15 20:02:00,
2013-01-15 15:17:00,30.2,20.0,30.32,West,264,0.0,1.0,66,0.00,,,0.00,weatherlink.com 1.10,2013-01-15 20:17:00,
2013-01-15 15:32:00,30.2,20.0,30.32,SE,132,1.0,3.0,67,0.00,,,0.00,weatherlink.com 1.10,2013-01-15 20:32:00,
2013-01-15 15:47:00,29.9,21.0,30.31,SSW,212,0.0,1.0,69,0.00,,,0.00,weatherlink.com 1.10,2013-01-15 20:47:00,
2013-01-15 16:02:00,30.4,20.0,30.31,SW,233,1.0,2.0,65,0.00,,,0.00,weatherlink.com 1.10,2013-01-15 21:02:00,
2013-01-15 16:17:00,29.9,20.0,30.30,WSW,243,0.0,2.0,66,0.00,,,0.00,weatherlink.com 1.10,2013-01-15 21:17:00,
2013-01-15 16:32:00,29.7,20.0,30.30,SE,134,0.0,1.0,67,0.00,,,0.00,weatherlink.com 1.10,2013-01-15 21:32:00,
2013-01-15 16:47:00,29.3,19.0,30.29,SE,143,0.0,0.0,66,0.00,,,0.00,weatherlink.com 1.10,2013-01-15 21:47:00,
2013-01-15 17:02:00,28.9,21.0,30.29,SE,141,0.0,1.0,71,0.00,,,0.00,weatherlink.com 1.10,2013-01-15 22:02:00,
2013-01-15 17:17:00,28.4,19.0,30.29,SE,139,0.0,1.0,69,0.00,,,0.00,weatherlink.com 1.10,2013-01-15 22:17:00,
2013-01-15 17:32:00,28.1,19.0,30.29,SE,140,0.0,0.0,70,0.00,,,0.00,weatherlink.com 1.10,2013-01-15 22:32:00,
2013-01-15 17:47:00,27.4,19.0,30.29,SE,139,0.0,0.0,71,0.00,,,0.00,weatherlink.com 1.10,2013-01-15 22:47:00,
2013-01-15 18:02:00,26.9,19.0,30.29,SE,139,0.0,0.0,73,0.00,,,0.00,weatherlink.com 1.10,2013-01-15 23:02:00,
2013-01-15 18:17:00,26.4,19.0,30.29,SE,139,0.0,0.0,74,0.00,,,0.00,weatherlink.com 1.10,2013-01-15 23:17:00,
2013-01-15 18:32:00,26.2,19.0,30.29,SE,139,0.0,0.0,75,0.00,,,0.00,weatherlink.com 1.10,2013-01-15 23:32:00,
2013-01-15 18:47:00,25.9,19.0,30.29,SE,139,0.0,0.0,75,0.00,,,0.00,weatherlink.com 1.10,2013-01-15 23:47:00,
2013-01-15 19:02:00,25.7,19.0,30.29,SE,137,0.0,0.0,76,0.00,,,0.00,weatherlink.com 1.10,2013-01-16 00:02:00,
2013-01-15 19:17:00,25.3,19.0,30.28,SE,136,0.0,0.0,77,0.00,,,0.00,weatherlink.com 1.10,2013-01-16 00:17:00,
2013-01-15 19:32:00,25.1,19.0,30.28,SE,136,0.0,0.0,78,0.00,,,0.00,weatherlink.com 1.10,2013-01-16 00:32:00,
2013-01-15 19:47:00,24.7,19.0,30.27,SE,136,0.0,0.0,79,0.00,,,0.00,weatherlink.com 1.10,2013-01-16 00:47:00,
2013-01-15 20:02:00,24.4,19.0,30.26,SE,137,0.0,0.0,80,0.00,,,0.00,weatherlink.com 1.10,2013-01-16 01:02:00,
2013-01-15 20:17:00,23.8,19.0,30.26,SE,137,0.0,0.0,80,0.00,,,0.00,weatherlink.com 1.10,2013-01-16 01:17:00,
2013-01-15 20:32:00,23.6,19.0,30.24,SE,136,0.0,0.0,81,0.00,,,0.00,weatherlink.com 1.10,2013-01-16 01:32:00,
2013-01-15 20:47:00,23.2,19.0,30.24,SE,137,0.0,0.0,82,0.00,,,0.00,weatherlink.com 1.10,2013-01-16 01:47:00,
2013-01-15 21:03:00,22.8,18.0,30.23,SE,136,0.0,0.0,83,0.00,,,0.00,weatherlink.com 1.10,2013-01-16 02:03:00,
2013-01-15 21:18:00,22.5,18.0,30.21,SE,137,0.0,0.0,83,0.00,,,0.00,weatherlink.com 1.10,2013-01-16 02:18:00,
2013-01-15 21:33:00,22.1,18.0,30.20,SE,136,0.0,0.0,84,0.00,,,0.00,weatherlink.com 1.10,2013-01-16 02:33:00,
2013-01-15 21:48:00,21.7,18.0,30.19,SE,134,0.0,0.0,85,0.00,,,0.00,weatherlink.com 1.10,2013-01-16 02:48:00,
2013-01-15 22:03:00,21.3,18.0,30.19,SE,134,0.0,0.0,85,0.00,,,0.00,weatherlink.com 1.10,2013-01-16 03:03:00,
2013-01-15 22:18:00,20.6,17.0,30.19,SE,134,0.0,0.0,86,0.00,,,0.00,weatherlink.com 1.10,2013-01-16 03:18:00,
2013-01-15 22:33:00,20.5,17.0,30.18,SE,134,0.0,0.0,87,0.00,,,0.00,weatherlink.com 1.10,2013-01-16 03:33:00,
2013-01-15 22:48:00,20.6,17.0,30.18,SE,133,0.0,0.0,87,0.00,,,0.00,weatherlink.com 1.10,2013-01-16 03:48:00,
2013-01-15 23:03:00,21.1,18.0,30.17,SE,130,0.0,0.0,87,0.00,,,0.00,weatherlink.com 1.10,2013-01-16 04:03:00,
2013-01-15 23:18:00,21.2,18.0,30.17,ESE,117,0.0,0.0,86,0.00,,,0.00,weatherlink.com 1.10,2013-01-16 04:18:00,
2013-01-15 23:33:00,21.2,18.0,30.16,SE,145,0.0,0.0,86,0.00,,,0.00,weatherlink.com 1.10,2013-01-16 04:33:00,
2013-01-15 23:48:00,21.6,18.0,30.16,SE,136,0.0,0.0,85,0.00,,,0.00,weatherlink.com 1.10,2013-01-16 04:48:00,